{"data":{"norad_id":65794,"intl_designator":"2025-218D","name":"STARLINK-35378","alt_names":[],"object_type":"PAYLOAD","status":"ACTIVE","operator":null,"country":"US","launch_date":"2025-09-26","launch_site_code":"AFWTR","launch_vehicle":null,"mission":null,"orbit_class":"UNKNOWN","rcs_meters":null,"size_class":null,"mass_kg":null,"dimensions":null,"purposes":["comms"],"wikipedia_slug":null,"has_3d_model":false,"image_url":null,"decayed_at":null,"tle_current":{"epoch":"2026-05-25T02:19:21.885312Z","epoch_age_seconds":73650,"freshness":"FRESH","line1":"1 65794U 25218D   26145.09678108  .00001749  00000+0  12522-3 0  9991","line2":"2 65794  97.4543   7.8408 0002278  64.8597 295.2866 15.05665538 36461","mean_motion":15.05665538,"eccentricity":0.0002278,"inclination_deg":97.4543,"raan_deg":7.8408,"arg_perigee_deg":64.8597,"mean_anomaly_deg":295.2866,"bstar":0.00012522,"rev_number":3646,"period_min":95.638769943076,"perigee_km":547.8853857821,"apogee_km":551.04160056679,"semimajor_km":6927.6004931744,"source":"CELESTRAK","updated_at":"2026-05-25T13:38:20.936254Z"}}}